Weather History for Abingdon, VA

Change the Weather History Date:

Thursday, August 1, 2013

  Actual Average (KTRI) Record (KTRI)
Temperature  
Mean Temperature 74 °F 74 °F  
Max Temperature 81 °F 85 °F 95 °F (1953)
Min Temperature 67 °F 64 °F 51 °F (1997)
Degree Days  
Heating Degree Days 0 0  
Month to date heating degree days 0  
Since 1 June heating degree days 11  
Since 1 July heating degree days 0  
Cooling Degree Days 9 10  
Month to date cooling degree days 10  
Year to date cooling degree days 588  
Since 1 June cooling degree days 515  
Growing Degree Days 24 (Base 50)    
Moisture  
Dew Point 68 °F    
Average Humidity 86    
Maximum Humidity 100    
Minimum Humidity 61    
Precipitation  
Precipitation 0.04 in 0.13 in 1.60 in (1948)
Month to date precipitation 0.13  
Year to date precipitation 26.11  
Snow  
Snow 0.00 in 0.00 in - ()
Month to date snowfall 0.0  
Since 1 June snowfall 0.0  
Since 1 July snowfall 0.0  
Snow Depth -    
Sea Level Pressure  
Sea Level Pressure 30.02 in    
Wind  
Wind Speed 2 mph (NW)    
Max Wind Speed 9 mph    
Max Gust Speed 20 mph    
Visibility 7 miles    
Events Rain , Thunderstorm    
T = Trace of Precipitation, MM = Missing Value Source: NWS Daily Summary

Daily Weather History Graph

Daily Weather History Graph

Search for Another Location

Airport:

Trip Planner

Search our weather history database for the weather conditions in past years. The results will help you decide how hot, cold, wet, or windy it might be!

Date:

Astronomy

Aug. 01, 2013 Rise Set
Actual Time 6:34 AM EDT 8:34 PM EDT
Civil Twilight 6:05 AM EDT 9:02 PM EDT
Nautical Twilight 5:30 AM EDT 9:37 PM EDT
Astronomical Twilight 4:53 AM EDT 10:14 PM EDT
Moon 2:10 AM EDT (8/1) 4:40 PM EDT (8/1)
Length of Visible Light 14h 56m
Length of Day
13h 59m
Waning Crescent, 23% of the Moon is Illuminated
Aug 1
Waning Crescent
Aug 6
New
Aug 14
First Quarter
Aug 20
Full
Aug 28
Last Quarter

Hourly Weather History & Observations

Time (EDT) Temp. Heat Index Dew Point Humidity Pressure Visibility Wind Dir Wind Speed Gust Speed Precip Events Conditions
12:15 AM 67.5 °F - 67.5 °F 100% 30.05 in 3.0 mi Calm Calm - 0.02 in Rain Rain
12:35 AM 67.5 °F - 67.5 °F 100% 30.06 in 7.0 mi Calm Calm - 0.03 in   Overcast
12:55 AM 67.6 °F - 67.6 °F 100% 30.06 in 4.0 mi Calm Calm - 0.03 in   Overcast
1:15 AM 67.6 °F - 67.6 °F 100% 30.05 in 2.5 mi Calm Calm - N/A   Overcast
1:35 AM 67.5 °F - 67.5 °F 100% 30.04 in 3.0 mi Calm Calm - N/A   Overcast
1:55 AM 67.6 °F - 67.6 °F 100% 30.04 in 4.0 mi Calm Calm - N/A   Overcast
2:15 AM 67.8 °F - 67.8 °F 100% 30.03 in 5.0 mi Calm Calm - N/A   Overcast
2:35 AM 68.0 °F - 68.0 °F 100% 30.02 in 3.0 mi Calm Calm - N/A   Overcast
2:55 AM 68.0 °F - 68.0 °F 100% 30.02 in 2.5 mi Calm Calm - N/A   Overcast
3:15 AM 68.0 °F - 68.0 °F 100% 30.01 in 2.5 mi Calm Calm - N/A   Overcast
3:35 AM 68.0 °F - 68.0 °F 100% 30.01 in 2.0 mi Calm Calm - N/A Rain Rain
3:55 AM 68.0 °F - 68.0 °F 100% 30.01 in 2.5 mi Calm Calm - 0.01 in Rain , Thunderstorm Rain
4:15 AM 68.0 °F - 68.0 °F 100% 30.01 in 4.0 mi Calm Calm - N/A   Overcast
4:35 AM 68.2 °F - 68.2 °F 100% 30.00 in 2.5 mi Calm Calm - N/A   Overcast
4:55 AM 68.2 °F - 68.2 °F 100% 30.00 in 1.8 mi West 3.5 mph - N/A   Overcast
5:15 AM 68.4 °F - 68.4 °F 100% 30.00 in 1.8 mi Calm Calm - N/A   Overcast
5:35 AM 68.4 °F - 68.4 °F 100% 30.00 in 0.8 mi Calm Calm - N/A   Overcast
5:55 AM 68.5 °F - 68.5 °F 100% 30.01 in 0.8 mi West 4.6 mph - N/A   Overcast
6:15 AM 68.9 °F - 68.9 °F 100% 30.01 in 0.8 mi West 3.5 mph - N/A   Overcast
6:35 AM 68.9 °F - 68.9 °F 100% 30.02 in 3.0 mi WNW 5.8 mph - N/A   Overcast
6:55 AM 68.9 °F - 68.9 °F 100% 30.01 in 3.0 mi West 4.6 mph - N/A   Overcast
7:15 AM 68.9 °F - 68.9 °F 100% 30.02 in 4.0 mi West 4.6 mph - N/A   Overcast
7:35 AM 69.1 °F - 69.1 °F 100% 30.03 in 4.0 mi West 5.8 mph - N/A   Overcast
7:55 AM 69.4 °F - 69.4 °F 100% 30.03 in 4.0 mi WNW 4.6 mph - N/A   Overcast
8:15 AM 69.6 °F - 69.6 °F 100% 30.03 in 4.0 mi Calm Calm - N/A   Overcast
8:35 AM 69.8 °F - 69.8 °F 100% 30.03 in 5.0 mi Calm Calm - N/A   Overcast
8:55 AM 70.2 °F - 70.2 °F 100% 30.03 in 5.0 mi Calm Calm - N/A   Overcast
9:15 AM 71.2 °F - 71.2 °F 100% 30.03 in 10.0 mi NNW 4.6 mph - N/A   Overcast
9:35 AM 72.7 °F - 71.8 °F 97% 30.03 in 10.0 mi NW 5.8 mph - N/A   Mostly Cloudy
9:55 AM 73.2 °F - 70.9 °F 92% 30.03 in 10.0 mi NW 8.1 mph - N/A   Mostly Cloudy
10:15 AM 72.7 °F - 70.3 °F 92% 30.03 in 10.0 mi NW 5.8 mph - N/A   Mostly Cloudy
10:35 AM 74.3 °F - 69.6 °F 85% 30.03 in 10.0 mi NNW 5.8 mph - N/A   Scattered Clouds
10:55 AM 75.0 °F - 68.9 °F 81% 30.03 in 10.0 mi North 5.8 mph - N/A   Scattered Clouds
11:15 AM 76.1 °F - 68.7 °F 78% 30.03 in 10.0 mi North 8.1 mph - N/A   Clear
11:35 AM 76.3 °F - 68.5 °F 77% 30.03 in 10.0 mi NNW 5.8 mph - N/A   Scattered Clouds
11:55 AM 77.5 °F - 68.2 °F 73% 30.04 in 10.0 mi North 9.2 mph - N/A   Scattered Clouds
12:15 PM 78.1 °F - 68.4 °F 72% 30.04 in 10.0 mi NNW 6.9 mph - N/A   Scattered Clouds
12:35 PM 78.1 °F - 67.5 °F 70% 30.04 in 10.0 mi North 3.5 mph - N/A   Scattered Clouds
12:55 PM 78.4 °F - 68.5 °F 72% 30.03 in 10.0 mi North 6.9 mph - N/A   Scattered Clouds
1:15 PM 78.1 °F - 67.3 °F 69% 30.03 in 10.0 mi North 8.1 mph 19.6 mph N/A   Mostly Cloudy
1:35 PM 79.2 °F - 68.0 °F 69% 30.02 in 10.0 mi NNW 6.9 mph - N/A   Scattered Clouds
1:55 PM 79.9 °F - 67.6 °F 66% 30.02 in 10.0 mi Calm Calm - N/A   Clear
2:15 PM 79.2 °F - 66.7 °F 66% 30.02 in 10.0 mi North 6.9 mph - N/A   Mostly Cloudy
2:35 PM 80.2 °F 82.8 °F 67.8 °F 66% 30.01 in 10.0 mi North 5.8 mph - N/A   Overcast
2:55 PM 80.4 °F 83.2 °F 68.5 °F 67% 30.01 in 10.0 mi NW 4.6 mph - N/A   Mostly Cloudy
3:15 PM 81.5 °F 84.2 °F 67.6 °F 63% 30.00 in 10.0 mi NW 8.1 mph - N/A   Mostly Cloudy
3:35 PM 81.3 °F 83.8 °F 67.1 °F 62% 30.01 in 10.0 mi North 8.1 mph - N/A   Scattered Clouds
3:55 PM 81.0 °F 83.2 °F 66.4 °F 61% 30.01 in 10.0 mi North 6.9 mph - N/A   Scattered Clouds
4:15 PM 79.9 °F - 66.7 °F 64% 30.01 in 10.0 mi NNW 4.6 mph - N/A   Mostly Cloudy
4:35 PM 80.6 °F 83.2 °F 67.6 °F 65% 30.00 in 10.0 mi North 8.1 mph - N/A   Scattered Clouds
4:55 PM 79.5 °F - 66.9 °F 65% 30.00 in 10.0 mi NNW 6.9 mph 17.3 mph N/A   Scattered Clouds
5:15 PM 80.4 °F 83.2 °F 68.4 °F 67% 30.00 in 10.0 mi NW 5.8 mph - N/A   Clear
5:35 PM 80.4 °F 83.2 °F 68.7 °F 67% 30.00 in 10.0 mi NW 6.9 mph - N/A   Scattered Clouds
5:55 PM 80.1 °F 82.7 °F 68.4 °F 67% 30.00 in 10.0 mi NW 4.6 mph - N/A   Mostly Cloudy
6:15 PM 80.4 °F 83.1 °F 68.0 °F 66% 30.00 in 10.0 mi NW 8.1 mph - N/A   Mostly Cloudy
6:35 PM 79.9 °F - 68.0 °F 67% 30.00 in 10.0 mi NNW 5.8 mph - N/A   Scattered Clouds
6:55 PM 78.8 °F - 67.6 °F 68% 30.00 in 10.0 mi North 3.5 mph - N/A   Mostly Cloudy
7:15 PM 77.9 °F - 68.0 °F 71% 30.01 in 10.0 mi Calm Calm - N/A   Overcast
7:35 PM 77.9 °F - 67.6 °F 71% 30.01 in 10.0 mi NNW 5.8 mph - N/A   Overcast
7:55 PM 77.0 °F - 67.6 °F 73% 30.02 in 10.0 mi NNW 4.6 mph - N/A   Mostly Cloudy
8:15 PM 75.9 °F - 68.0 °F 76% 30.02 in 10.0 mi NW 3.5 mph - N/A   Overcast
8:35 PM 75.2 °F - 67.6 °F 77% 30.03 in 10.0 mi Calm Calm - N/A   Mostly Cloudy
8:55 PM 73.2 °F - 68.5 °F 85% 30.03 in 10.0 mi Calm Calm - N/A   Scattered Clouds
9:15 PM 71.8 °F - 69.1 °F 91% 30.04 in 10.0 mi NW 9.2 mph - N/A Rain Light Rain
9:35 PM 70.3 °F - 69.8 °F 98% 30.04 in 10.0 mi North 3.5 mph - N/A   Overcast
9:55 PM 70.3 °F - 69.8 °F 98% 30.05 in 10.0 mi Calm Calm - N/A   Scattered Clouds
10:15 PM 68.9 °F - 68.9 °F 100% 30.05 in 5.0 mi Calm Calm - N/A   Clear
10:35 PM 68.0 °F - 68.0 °F 100% 30.05 in 2.5 mi WSW 3.5 mph - N/A   Clear
10:55 PM 68.0 °F - 68.0 °F 100% 30.06 in 3.0 mi Calm Calm - N/A   Scattered Clouds
11:15 PM 67.5 °F - 67.5 °F 100% 30.06 in 4.0 mi Calm Calm - N/A   Scattered Clouds
11:35 PM 67.1 °F - 67.1 °F 100% 30.06 in 5.0 mi NNW 3.5 mph - N/A   Clear
11:55 PM 67.1 °F - 67.1 °F 100% 30.06 in 7.0 mi Calm Calm - N/A   Clear